NUSAT-14 (HEDY)

Last updated on Tue Sep 05 2023 00:02:24 GMT+0000 (Coordinated Universal Time)

1 46831U 20079E 23247.38327799 .04137793 23230-5 97401-3 0 9999 2 46831 97.1234 324.5264 0011349 261.9629 98.0378 16.29580755159142
UTC large
Height (km)
Speed (km/s)
/
Latitude / Longitude
Inclination (degrees)
Orbital Period (minutes)
Azimuth
Elevation
Range (km)
Doppler Factor

Next 0 passes for location: London (51.5072 / 0.1276)

Sorry there are no passes over London.